Theta_e
311 311 311 310 310 310 310 310 309 308 307 303 301 302 292 291 289 299 302 303 301 293 287 293 291 290 292 295 295 297 295 295 297 294 295 294 296 294 294 293 292 294 293 293 292 293 291 295 292 295 295 295 295 296 297 299 299 302 301 303 306 310 297 293 293 296 298 300 301 301 303 304 302 302 301 298 296 296 296 295 291 292 290 292 290 291 292
311 311 311 310 310 310 310 310 309 309 307 303 303 297 293 293 292 294 301 303 300 291 284 285 287 289 292 293 292 296 294 294 293 293 294 293 293 292 292 294 295 292 295 294 290 294 288 295 293 292 293 293 298 297 297 299 296 300 300 299 303 295 296 295 288 288 291 295 298 298 300 300 299 299 301 301 300 298 297 295 293 293 292 292 289 288 293
311 311 310 310 310 310 310 310 309 309 308 307 301 294 295 293 295 294 297 302 297 289 291 288 287 288 288 290 289 291 292 295 294 293 292 295 294 293 291 293 293 293 295 293 294 295 292 290 294 293 292 293 299 297 297 299 296 302 307 308 304 297 296 294 287 285 284 285 286 288 292 295 297 299 300 301 300 298 295 294 292 290 291 293 290 291 289
311 310 310 310 310 310 310 309 309 309 308 307 300 297 294 290 283 291 291 294 294 294 296 293 289 288 288 287 289 291 288 293 295 295 294 295 294 292 292 293 294 293 291 290 291 291 295 290 290 290 289 293 295 296 296 297 296 306 309 307 302 298 299 297 294 291 288 291 293 296 299 296 296 298 299 299 301 302 299 296 292 292 287 292 292 293 294
310 310 310 310 310 309 309 309 309 309 308 307 301 298 294 294 286 287 283 292 291 290 293 291 291 287 291 284 289 287 289 290 291 295 290 293 292 292 292 292 290 290 290 289 288 291 290 292 290 289 290 292 294 296 296 296 302 307 303 304 300 295 291 294 295 296 296 297 296 299 300 297 298 298 298 299 299 300 299 296 294 294 290 291 291 293 296
310 310 310 310 309 309 309 309 309 308 307 306 303 292 295 286 290 292 293 287 283 286 287 290 289 291 291 287 290 287 287 288 286 291 293 293 293 288 290 290 291 291 290 290 285 289 287 289 287 291 290 291 293 292 295 295 301 301 296 300 296 293 290 295 296 294 296 297 298 299 300 299 299 299 299 299 299 299 298 298 297 297 296 295 294 295 296
310 310 310 310 310 309 309 309 308 308 306 305 300 291 295 294 292 292 296 287 289 289 289 291 290 289 290 288 289 286 287 286 289 288 288 290 289 290 284 286 289 289 291 291 287 288 283 285 290 288 289 289 289 288 291 296 296 296 294 295 298 294 290 296 294 292 294 296 297 299 298 299 299 298 299 300 300 299 300 300 298 298 298 299 298 296 298
310 310 310 310 310 310 309 308 308 307 305 305 298 296 291 290 290 288 294 293 290 290 290 290 289 286 291 286 287 288 287 286 288 289 288 285 287 291 286 287 289 289 289 290 287 289 290 289 286 292 290 289 290 289 290 290 294 295 292 293 296 292 289 296 293 291 292 295 298 299 298 298 297 298 299 300 300 300 300 300 299 300 299 299 297 297 298
310 310 310 310 310 309 309 308 307 306 306 300 297 296 297 295 298 296 289 286 289 290 290 288 287 286 288 286 287 289 288 287 290 288 292 288 286 288 286 289 289 290 289 289 289 292 291 292 291 293 292 287 293 289 290 294 290 292 291 293 295 294 289 294 291 288 288 294 295 295 297 298 298 297 297 298 299 297 299 299 300 297 296 297 295 294 296
310 310 310 310 310 310 309 308 308 306 305 300 298 292 298 298 303 299 294 285 291 287 289 288 287 282 287 288 288 288 288 290 291 287 291 291 291 290 290 290 289 287 287 287 289 292 293 293 294 294 295 296 295 295 295 294 291 291 291 294 290 291 290 288 289 286 286 292 294 294 295 296 294 296 299 299 299 300 300 301 303 302 301 297 296 297 299
310 310 310 310 310 309 309 308 308 307 304 299 295 295 298 295 294 295 294 285 288 288 287 286 286 288 289 290 288 290 289 289 291 285 286 291 291 293 292 291 288 286 287 290 296 297 297 297 297 297 296 295 295 295 296 296 296 295 293 292 292 292 291 289 292 285 286 291 292 294 293 287 292 302 303 301 300 299 298 298 299 300 301 300 302 303 303
310 310 309 309 310 310 309 308 308 307 305 302 302 299 300 302 299 296 291 284 286 289 285 284 286 288 288 289 289 288 287 288 289 292 287 289 291 292 292 291 290 284 292 298 299 299 299 299 297 297 296 295 295 295 295 294 295 298 297 293 292 292 293 289 291 286 285 290 291 290 285 289 300 300 302 304 303 300 299 299 301 300 303 304 302 300 301
310 310 310 310 309 309 309 309 308 307 307 305 304 299 302 304 298 294 292 287 284 287 285 286 290 289 290 289 288 289 290 292 291 292 291 289 290 291 292 291 290 292 299 296 298 296 292 289 291 292 292 293 293 294 293 293 294 296 297 297 293 291 290 290 290 289 290 288 288 283 284 295 301 303 304 311 302 301 304 305 308 311 314 308 302 301 302
310 310 310 309 310 310 309 309 308 307 307 306 302 302 303 300 296 294 292 287 286 289 290 288 288 287 288 289 289 290 290 289 290 291 288 292 290 291 293 295 295 298 298 298 295 294 288 288 284 285 286 288 288 288 291 294 294 294 295 296 297 295 293 292 287 291 283 286 286 288 296 296 299 299 306 307 304 304 300 297 300 312 314 309 304 305 307
310 310 310 310 310 310 309 308 308 308 308 307 303 303 302 302 301 297 297 292 286 289 290 283 286 288 289 289 290 287 287 287 287 287 291 293 291 293 294 296 298 297 297 295 290 291 287 287 282 280 282 281 275 280 292 290 295 296 296 296 297 296 292 293 288 287 290 285 286 289 288 287 291 303 309 312 313 313 311 305 301 310 317 318 311 308 310
310 310 310 310 310 310 310 309 308 308 308 307 303 302 303 304 304 301 297 292 289 282 287 291 292 290 288 288 289 287 286 285 285 286 287 288 290 293 296 297 298 298 297 298 291 287 286 284 281 281 276 279 285 285 280 289 292 295 296 296 296 297 296 295 292 289 292 289 285 285 286 288 299 304 309 312 314 314 313 304 297 307 316 319 316 314 315
310 310 310 310 310 310 310 309 308 307 307 307 300 301 301 305 303 299 296 294 291 286 293 293 293 292 289 287 289 287 289 286 288 284 283 284 288 291 293 297 298 297 297 293 290 288 286 283 285 284 285 288 283 280 287 289 288 291 294 295 294 294 295 297 293 291 293 292 288 286 293 296 303 307 310 313 315 316 305 294 293 306 319 320 319 318 317
310 310 310 310 310 310 310 309 309 308 307 308 303 300 301 306 304 302 297 294 290 289 293 295 292 287 286 288 286 290 292 290 289 290 287 288 289 289 292 294 292 296 299 289 289 287 285 284 282 282 281 289 289 290 279 287 288 292 291 290 291 296 300 300 294 295 295 294 289 291 294 304 308 309 312 314 317 306 296 290 298 314 319 320 319 319 318
310 310 310 310 309 309 309 309 309 308 308 307 304 303 302 304 304 303 298 295 292 286 294 297 297 293 295 296 293 293 292 291 290 286 285 286 288 293 295 293 296 287 293 289 291 286 285 284 289 285 283 286 290 283 291 287 285 292 295 292 295 296 298 300 301 295 290 292 290 289 294 303 309 312 314 316 309 294 290 304 319 319 319 321 322 324 323
310 310 310 310 309 309 309 309 309 309 308 307 305 299 300 303 304 302 297 292 294 291 294 294 295 292 296 292 289 288 289 291 291 288 287 283 291 294 289 283 293 293 289 292 285 290 286 283 284 289 285 286 287 293 287 289 294 291 292 296 294 295 292 292 294 298 294 293 291 289 284 298 312 313 313 316 305 307 315 319 320 322 320 321 321 323 322
310 310 310 310 309 309 309 309 309 309 308 308 307 301 299 302 303 303 302 298 294 290 291 298 298 296 296 295 295 295 292 289 289 287 289 289 292 290 280 282 285 288 285 287 282 284 286 284 286 285 290 287 289 290 284 287 290 296 295 294 295 300 293 293 298 302 290 291 288 288 299 307 314 313 305 312 313 315 316 317 317 319 318 318 319 320 320
310 310 310 310 310 310 309 309 309 308 308 308 307 301 298 302 303 304 304 302 296 293 294 298 299 298 299 299 299 299 297 296 296 296 292 289 290 290 290 291 290 290 292 294 288 288 291 289 290 286 284 286 291 285 288 284 282 290 301 299 290 300 298 301 292 304 299 295 298 308 312 314 316 316 316 316 317 315 315 316 316 316 317 318 317 319 320
310 310 310 310 310 310 310 309 309 308 308 309 306 301 298 299 299 305 303 297 299 300 300 298 299 299 301 302 304 303 301 301 300 298 297 292 289 290 289 289 288 294 294 294 288 288 290 290 285 290 286 288 286 286 288 288 286 292 290 300 298 305 309 310 307 304 311 313 312 315 314 313 314 317 318 317 317 316 315 313 311 313 315 316 316 317 318
310 310 310 310 310 310 310 310 309 309 308 308 307 301 299 299 299 300 300 299 295 291 295 297 293 290 292 293 298 302 304 303 302 301 301 299 289 289 292 293 294 296 295 296 297 292 292 292 290 291 283 289 291 285 282 283 287 293 293 293 297 302 306 307 301 305 301 295 312 312 312 312 313 314 316 318 319 317 316 314 314 314 314 314 315 316 316
311 311 310 311 310 310 310 310 310 309 309 308 307 306 304 301 300 301 297 290 291 290 285 289 292 296 298 300 301 299 300 303 306 304 302 300 296 291 290 294 297 293 293 296 300 297 297 289 290 289 284 292 291 283 292 287 287 295 287 292 296 295 305 303 304 303 298 300 310 311 315 313 315 315 314 314 316 317 318 317 317 316 317 317 316 315 315
311 311 311 311 311 311 311 310 310 309 309 309 308 301 300 300 301 302 300 300 297 293 286 286 291 300 300 297 296 299 302 302 301 303 303 301 300 298 297 298 297 299 298 303 298 293 293 292 291 291 286 288 296 287 287 292 291 293 288 287 294 300 305 296 304 302 306 310 309 310 312 314 313 316 317 317 316 316 316 317 317 316 316 316 317 316 315
311 311 311 311 311 311 311 310 310 310 309 309 307 303 301 301 302 301 298 297 292 287 290 286 291 296 298 295 300 302 302 301 301 300 300 302 301 301 299 297 295 296 295 296 300 297 295 293 292 288 291 290 295 291 292 290 289 287 289 294 299 297 294 303 304 299 300 301 303 308 303 303 309 313 316 316 318 318 316 316 316 316 314 315 315 315 316
311 311 311 311 311 311 311 310 310 310 309 309 307 305 304 302 303 303 303 301 294 288 289 290 290 294 300 296 301 301 301 302 300 299 298 299 299 299 299 297 296 294 294 293 290 291 291 289 289 294 295 297 293 289 295 294 294 290 290 294 299 298 301 302 299 296 298 308 309 311 312 310 310 312 316 318 319 317 315 315 315 316 316 315 314 314 313
311 311 311 311 311 311 311 310 310 310 310 309 304 303 302 303 304 305 304 304 301 295 293 293 296 295 288 293 300 298 300 300 300 299 298 298 299 298 297 297 296 296 295 294 293 291 290 292 295 293 292 301 293 289 292 287 288 288 294 301 302 304 306 304 304 308 308 311 311 313 312 308 311 316 317 317 318 318 316 318 318 317 316 316 314 314 313
312 312 311 311 311 311 310 310 310 310 310 305 302 299 294 297 301 302 304 304 302 300 292 289 286 290 298 297 295 298 299 300 299 299 298 298 298 298 297 296 296 298 296 293 292 289 292 292 294 296 299 304 294 293 289 290 289 292 301 304 306 307 307 307 309 306 305 313 314 314 314 314 315 316 317 318 319 320 317 318 318 318 318 318 315 314 315
312 312 312 311 311 310 311 310 310 310 308 304 300 293 289 286 296 307 306 305 305 300 295 294 289 295 293 298 297 296 297 299 299 299 300 300 300 301 301 298 297 298 293 293 292 292 295 291 293 297 303 303 299 292 289 289 288 291 299 303 304 305 306 306 309 311 311 312 315 316 317 314 314 315 315 316 316 317 316 317 317 321 319 318 316 316 315
311 311 311 311 310 310 310 310 310 309 307 303 298 295 295 296 301 307 309 308 305 299 294 287 287 288 288 293 299 302 300 300 301 302 301 304 299 301 301 300 296 298 297 293 294 293 293 294 293 294 294 302 300 293 293 291 289 291 299 301 302 304 308 308 308 310 312 313 314 313 313 312 314 312 310 315 315 316 315 314 316 314 317 318 317 316 316
311 310 310 310 310 310 310 310 310 309 306 306 307 308 307 307 307 308 308 307 303 298 298 289 285 288 287 291 299 302 303 303 302 303 298 303 299 300 296 299 299 297 304 297 293 291 297 296 297 294 297 302 296 295 293 291 293 298 301 303 304 306 307 309 310 310 310 313 314 310 308 309 311 313 314 315 315 315 314 315 316 315 314 314 313 313 313
310 310 309 309 309 309 309 309 309 309 308 305 300 302 306 307 307 307 308 305 300 300 298 289 285 285 286 298 291 299 305 298 296 298 293 302 303 299 295 298 298 294 297 294 296 296 298 299 295 297 300 296 299 294 290 294 299 301 304 305 307 307 307 307 308 310 311 313 315 316 313 314 314 314 313 313 312 314 316 314 315 313 312 312 312 312 311
310 309 309 309 310 311 311 310 307 305 301 302 302 305 308 309 308 309 308 302 292 290 290 290 290 284 285 289 287 295 305 300 293 297 294 299 306 298 298 294 296 292 297 304 295 294 293 296 300 294 291 299 295 290 292 295 299 302 303 304 306 306 307 307 309 312 314 315 315 314 314 313 312 311 311 311 312 313 313 313 313 312 311 310 311 311 312
309 309 309 310 310 310 308 308 306 303 300 300 302 309 312 312 311 309 308 306 300 291 288 289 289 285 287 283 284 295 303 297 300 300 299 299 300 304 301 298 291 298 302 297 294 296 294 300 296 290 297 293 290 293 295 298 299 301 302 303 306 307 307 308 308 310 312 314 313 313 313 313 312 311 311 312 312 312 312 312 312 311 310 310 311 311 312
309 309 310 310 307 306 301 302 307 304 303 306 309 312 313 311 311 310 305 302 304 304 293 288 285 286 288 288 292 297 301 290 300 298 298 296 296 300 300 296 293 298 299 295 295 294 298 304 296 291 292 290 292 298 300 301 300 301 302 305 308 309 309 310 312 312 311 311 312 311 311 311 311 311 311 311 311 312 312 312 311 311 311 310 311 313 312
309 309 305 303 300 297 296 299 303 307 313 312 313 308 305 304 297 299 299 295 300 300 295 294 286 290 295 290 285 298 299 295 300 295 296 300 296 295 300 296 296 297 288 291 295 304 299 296 293 291 292 297 299 300 300 302 305 307 307 308 309 310 310 310 312 311 309 308 308 309 311 311 310 310 310 310 312 312 311 312 313 313 313 313 313 314 314
307 304 303 302 299 297 296 300 310 312 308 309 309 301 298 301 296 293 294 297 298 292 296 291 287 291 289 288 290 301 298 295 293 295 290 299 295 291 298 289 297 296 287 288 294 303 290 291 293 292 290 295 296 299 304 305 308 309 309 310 311 312 312 312 312 311 310 309 309 310 310 309 309 310 311 312 312 313 313 313 314 314 314 315 315 316 316
301 301 299 297 295 300 307 308 311 307 305 301 302 298 293 298 293 289 300 291 289 295 295 287 294 294 294 290 290 292 303 296 290 291 294 297 304 292 295 293 294 291 284 285 290 300 290 284 290 289 288 295 297 302 305 308 307 309 310 311 312 313 313 312 313 314 314 314 315 315 315 315 315 313 313 313 314 314 315 315 316 316 316 318 319 316 314
299 299 298 295 299 300 303 305 305 304 300 296 296 298 295 288 295 298 295 290 289 291 300 296 299 296 299 298 297 292 304 306 304 305 298 290 302 298 292 285 296 287 285 284 295 297 292 288 287 285 290 297 300 305 307 308 308 310 311 311 312 312 313 313 314 314 314 314 315 316 316 317 317 316 316 316 316 315 316 316 317 316 316 316 315 316 317
302 301 303 305 305 305 304 302 302 299 299 299 291 286 289 293 297 295 296 287 290 297 299 298 293 297 298 300 298 300 301 308 305 301 295 287 297 294 287 289 291 285 284 292 297 292 290 285 285 287 295 299 305 306 307 307 308 309 309 311 313 313 313 313 313 313 314 313 314 314 315 316 316 316 316 316 316 316 316 316 316 316 316 316 318 318 318
307 307 305 302 302 298 301 290 294 297 286 288 287 286 291 287 290 290 293 299 304 300 300 307 303 305 306 308 303 306 303 307 301 298 294 290 299 297 289 285 286 285 289 298 293 287 286 285 285 291 299 303 305 305 307 308 309 310 310 312 312 313 313 313 312 312 313 313 313 313 314 314 315 316 318 317 317 316 317 317 317 316 316 317 318 318 318
305 305 302 299 293 295 299 288 297 295 290 288 286 284 287 288 292 295 293 296 300 298 302 298 300 301 297 306 302 301 303 304 306 302 298 299 295 287 288 285 287 297 302 292 289 285 285 290 294 298 302 304 305 307 307 308 309 309 309 311 313 313 313 313 313 313 313 314 314 314 315 314 314 315 316 317 317 315 315 316 317 318 318 318 317 317 318
299 293 290 289 287 291 292 287 293 288 286 290 291 290 291 288 292 295 294 302 302 298 303 304 304 303 301 305 306 305 303 298 305 300 294 298 293 294 291 288 297 295 288 285 286 287 288 292 299 301 302 303 305 307 308 308 308 309 309 310 311 312 312 312 311 312 312 313 313 314 313 314 314 314 315 315 316 317 316 315 316 317 317 318 317 317 317
297 293 290 285 286 289 289 287 289 287 292 295 293 294 294 296 296 297 302 306 301 302 301 303 304 304 300 304 299 298 302 302 298 298 300 298 292 288 297 302 297 288 287 286 285 286 290 295 299 300 303 304 306 307 308 309 310 310 310 308 309 310 311 312 312 312 312 313 313 313 313 313 313 314 314 315 316 316 315 316 317 317 317 317 317 317 317
292 297 288 287 286 286 293 288 290 293 294 295 296 297 297 298 300 300 302 303 301 304 305 306 304 304 299 300 300 300 301 301 296 297 301 293 292 295 300 291 285 285 285 286 287 290 294 298 302 304 306 306 307 308 308 309 310 309 309 310 311 310 311 311 312 312 313 314 314 313 313 313 313 314 315 314 314 315 317 317 317 318 317 315 316 316 316
292 293 289 286 285 288 289 291 296 296 298 296 297 299 300 301 297 299 303 304 305 304 303 303 301 301 300 304 303 296 297 298 296 294 298 295 297 290 287 289 286 287 290 290 291 296 298 301 302 304 307 308 307 307 307 308 309 310 310 310 309 309 309 309 309 310 310 309 309 309 309 310 310 310 310 310 310 311 313 314 314 314 314 314 314 314 313
296 290 289 287 292 292 292 297 294 295 298 300 301 301 300 299 299 301 303 305 303 302 303 303 302 300 295 297 296 296 292 297 291 289 295 292 287 284 285 284 286 287 294 297 296 299 300 303 305 306 307 308 308 308 309 309 308 307 307 306 306 306 306 306 307 308 308 308 308 308 308 309 308 308 308 308 308 308 309 310 310 310 311 311 310 310 310
290 290 293 289 293 295 298 298 297 295 297 298 299 298 300 299 299 302 305 303 303 303 303 303 303 296 294 295 289 290 290 295 295 292 292 290 289 289 288 286 288 289 293 298 300 301 304 305 306 305 306 306 308 307 306 306 308 306 304 304 303 303 303 303 303 304 305 306 307 307 307 308 307 307 307 307 308 309 309 309 309 309 309 310 310 310 310
293 289 293 300 297 295 296 293 293 293 295 296 297 298 299 298 300 301 305 304 303 302 300 296 293 291 289 290 288 287 289 298 295 292 292 291 295 292 288 288 292 296 298 302 303 304 305 306 306 306 306 306 306 306 305 304 304 302 302 302 302 302 302 302 302 303 303 303 304 309 304 304 305 305 306 307 307 307 307 309 309 308 308 308 308 308 308
290 291 294 298 299 299 297 297 297 296 296 298 298 300 301 299 301 303 306 304 301 298 296 298 295 290 289 289 291 295 297 294 290 293 291 293 297 292 291 293 295 298 300 301 302 304 306 305 306 306 306 307 307 305 303 303 301 301 301 301 301 301 301 301 302 302 302 303 303 303 303 304 304 305 306 304 304 304 304 305 308 308 307 307 307 307 307
Wind_Speed
21 20 21 20 19 17 16 15 14 12 13 6 6 4 3 3 9 11 15 11 10 7 2 3 6 6 8 13 9 6 6 6 6 5 4 3 2 2 2 1 2 3 2 2 3 6 2 1 2 3 4 7 6 7 17 16 11 8 6 8 3 14 0 4 8 7 5 4 4 5 7 11 12 12 9 10 11 9 10 10 6 6 1 3 1 10 5
20 20 20 19 18 16 14 14 13 10 9 4 6 4 5 7 8 7 3 10 7 3 7 7 8 8 11 11 10 5 6 7 9 5 6 3 3 2 2 1 3 2 2 1 2 4 2 4 7 4 7 2 6 14 14 13 8 9 6 5 11 5 4 2 2 3 6 6 4 6 1 3 6 8 11 13 9 12 7 3 2 6 8 8 7 18 2
20 20 19 17 16 15 13 12 12 9 8 6 2 4 5 7 4 6 6 5 3 5 6 7 8 10 10 10 10 12 7 6 8 7 7 4 2 3 3 4 5 2 2 2 2 2 0 3 4 6 3 4 3 9 13 10 4 4 7 11 6 4 4 2 5 12 11 9 10 9 9 8 1 3 8 14 18 16 6 13 3 10 4 8 7 8 2
21 20 19 17 16 14 12 11 12 9 8 7 2 2 4 4 8 5 4 4 5 3 4 6 8 7 10 11 6 9 9 9 6 5 4 6 8 2 3 3 3 1 6 4 3 1 3 4 4 6 5 4 3 9 8 7 6 9 13 14 6 1 3 3 3 3 6 4 5 9 2 5 14 13 9 12 18 20 16 8 7 14 3 10 9 4 2
21 21 20 17 15 13 12 11 10 8 7 6 1 2 1 3 2 5 6 7 1 6 3 8 9 8 11 4 6 9 10 9 6 9 2 10 7 4 0 6 10 6 7 2 2 3 5 4 3 4 5 4 5 7 6 7 6 16 9 13 3 2 3 5 6 6 6 8 11 16 15 16 12 14 15 12 13 16 19 17 15 8 7 15 4 6 6
22 22 21 18 13 12 11 9 9 6 4 2 1 2 2 2 2 2 2 3 5 11 7 10 10 10 10 6 7 7 9 9 8 8 8 10 6 5 4 11 10 10 6 6 2 2 4 2 1 4 3 6 6 6 4 3 9 14 7 5 3 1 2 5 9 15 14 13 14 14 13 12 13 13 16 17 15 14 19 21 7 14 13 19 6 7 6
22 22 20 18 13 10 10 9 8 3 1 2 0 2 2 3 3 4 3 1 5 4 11 12 9 10 8 6 6 10 11 10 8 7 7 8 7 9 2 7 9 8 6 1 1 3 6 1 2 2 4 6 6 5 4 2 11 10 9 5 1 2 4 3 10 16 16 15 14 13 11 10 12 13 16 18 18 19 20 18 12 17 14 11 10 11 13
21 21 20 17 13 9 9 10 6 2 3 3 2 3 2 3 2 3 3 3 6 7 6 5 7 7 7 4 5 4 8 10 12 9 5 6 5 5 6 9 9 8 5 2 1 4 3 6 7 1 2 5 0 3 2 2 3 8 5 5 2 4 5 10 12 10 13 15 11 10 14 11 12 13 13 17 19 21 21 18 15 13 14 11 6 8 12
21 20 19 17 13 9 10 8 5 1 5 1 3 1 4 2 1 1 4 5 4 3 3 5 6 5 5 2 7 7 5 8 9 11 8 4 2 5 7 6 9 5 6 3 3 4 5 7 8 7 4 5 0 2 3 5 9 4 5 1 1 2 4 3 5 9 9 8 10 18 18 17 11 12 14 16 20 21 18 16 10 9 11 10 7 7 9
20 19 18 17 13 11 10 7 5 3 6 2 1 3 2 1 1 1 1 3 4 4 4 4 4 3 3 5 8 5 9 9 9 7 4 1 3 5 5 5 4 8 8 9 4 3 7 9 8 6 6 7 6 6 8 4 4 3 4 4 4 3 0 5 5 9 6 10 11 15 19 14 11 15 20 18 11 11 11 11 13 16 14 12 16 18 8
19 18 18 16 16 14 12 13 8 3 5 3 1 3 2 2 3 2 2 4 3 4 3 4 3 4 8 9 10 9 9 10 7 2 3 4 8 5 3 5 5 6 7 6 6 8 9 9 9 6 6 7 9 7 9 11 11 11 8 4 3 4 3 3 1 3 8 16 14 13 6 6 18 9 6 10 16 11 10 10 9 8 12 13 14 16 13
19 18 17 16 15 15 11 10 8 2 7 3 3 4 4 2 3 3 4 4 5 2 1 5 5 8 10 12 9 10 10 9 7 3 8 6 8 5 6 7 2 4 4 6 11 10 11 7 5 5 8 9 11 13 14 16 14 13 11 11 7 3 3 3 2 3 6 9 10 7 4 11 5 11 4 13 14 7 11 9 8 10 9 5 1 5 8
19 18 17 16 15 14 13 11 5 1 4 4 4 6 2 1 2 1 3 4 6 5 7 7 5 8 9 12 12 10 9 8 8 10 9 8 6 5 3 2 3 4 7 11 10 9 7 8 7 6 9 8 8 12 16 19 19 17 15 16 12 6 6 2 2 3 4 4 3 3 8 6 13 16 8 17 3 4 9 3 3 3 3 5 6 7 9
18 18 17 16 15 12 11 10 9 5 4 4 4 4 3 2 3 3 2 2 5 4 3 8 8 8 7 7 7 9 9 10 9 8 8 4 5 8 9 4 3 5 8 7 5 3 4 3 5 5 6 4 5 4 13 21 22 21 22 19 16 14 5 5 4 4 4 5 4 9 12 17 13 3 7 9 4 7 5 11 9 3 2 7 8 8 5
18 18 17 16 15 14 9 11 8 8 5 5 4 3 4 5 6 3 1 2 7 8 4 6 2 4 7 7 5 7 7 7 8 8 7 6 5 3 3 4 5 7 6 3 2 1 2 2 2 3 5 3 2 4 3 3 7 20 22 22 20 17 12 6 6 3 7 5 6 4 3 4 4 0 7 5 7 10 11 4 7 2 2 2 4 8 9
17 17 16 16 15 13 11 11 9 5 7 3 3 4 5 4 4 4 3 4 3 6 4 6 5 5 4 4 5 7 7 6 5 6 8 3 3 5 2 4 5 6 2 1 1 0 1 1 5 3 4 3 2 4 5 5 4 8 19 19 19 17 16 11 10 6 3 2 3 3 3 5 1 10 14 16 15 12 9 2 7 3 2 2 3 3 2
17 17 16 16 15 13 12 8 4 5 6 3 3 2 3 3 4 4 4 4 5 8 5 10 9 7 6 6 3 4 2 4 3 6 6 5 3 6 9 4 4 3 2 1 0 0 1 1 2 2 5 2 3 5 7 3 6 4 11 16 19 15 11 9 8 10 7 3 2 4 3 5 6 14 16 21 18 16 1 9 7 1 4 3 3 3 4
18 18 17 16 15 14 12 12 9 5 3 4 4 2 3 3 5 2 3 5 5 5 4 9 9 3 4 3 5 4 3 3 3 4 7 5 4 5 4 3 5 3 2 0 1 0 3 2 3 5 7 4 2 4 4 6 5 4 1 10 11 10 6 10 9 9 7 5 2 3 6 4 7 14 20 22 18 4 10 11 2 1 2 2 2 3 2
19 18 18 17 16 15 13 12 11 8 4 1 3 3 5 4 4 5 4 4 4 6 2 3 1 5 5 4 8 6 5 7 7 6 6 7 3 3 2 4 2 4 4 0 0 2 3 4 2 1 3 2 2 4 3 3 4 7 5 6 7 10 6 4 6 4 6 4 3 6 7 4 9 15 20 17 8 4 5 4 9 2 2 3 2 7 4
20 19 18 18 17 15 14 13 11 10 9 3 5 3 3 3 5 7 5 4 3 8 7 9 7 13 6 6 7 6 4 4 4 5 4 8 2 8 7 5 1 1 2 0 1 2 2 3 2 2 2 3 1 4 4 7 8 7 4 8 8 5 10 7 8 3 3 2 1 4 7 6 13 19 13 11 6 4 7 9 6 6 3 3 4 4 3
20 20 19 18 17 17 15 14 12 10 9 7 4 3 4 3 5 6 6 6 4 9 7 6 9 12 10 11 12 11 9 10 6 5 6 6 1 3 3 2 1 1 2 1 1 1 0 3 3 1 2 2 3 4 6 6 5 7 11 7 4 10 6 7 5 4 6 5 7 6 5 7 13 10 6 7 7 9 9 5 5 7 6 5 2 5 3
20 19 19 19 19 17 17 15 13 11 10 8 3 2 4 3 3 4 6 7 6 8 6 5 6 10 12 12 12 11 12 13 14 9 7 8 2 6 6 7 6 2 1 0 1 1 1 1 1 1 4 3 1 5 5 7 7 6 3 2 8 5 5 4 7 2 3 6 6 2 2 6 7 7 6 8 7 8 10 9 6 6 6 5 2 3 3
20 19 19 20 19 19 17 16 15 13 11 10 4 4 6 2 2 2 3 6 5 7 7 8 8 10 10 14 16 15 15 14 14 11 10 8 10 7 9 8 9 3 3 3 6 5 2 2 4 1 3 3 4 6 5 6 7 5 5 5 6 9 7 2 5 2 1 2 2 3 2 5 6 6 7 7 9 10 10 12 11 10 9 7 4 5 4
23 23 22 21 21 19 18 17 16 14 13 11 7 3 5 4 2 1 2 5 6 8 8 7 3 6 7 10 8 7 10 11 13 14 12 10 10 9 5 8 4 3 3 5 8 5 1 2 1 2 3 3 2 4 6 7 7 7 9 6 5 13 10 6 6 3 4 4 4 3 3 1 4 5 8 7 7 6 8 10 11 10 12 11 9 5 6
25 23 23 22 22 21 19 17 16 15 13 13 10 4 3 3 2 4 3 5 2 2 8 5 9 12 12 12 11 9 8 9 9 12 10 11 14 11 11 6 6 8 7 5 1 1 1 5 3 3 6 3 3 7 4 6 8 5 4 6 5 9 9 8 5 7 5 4 4 2 2 3 4 4 7 9 10 11 10 9 11 10 11 11 11 7 7
25 24 24 23 21 21 20 19 17 14 12 11 10 4 5 6 3 5 3 4 3 4 7 8 7 2 0 5 9 9 6 6 8 9 12 15 16 16 14 7 6 4 3 2 3 3 4 4 4 4 5 4 5 5 5 5 9 8 10 16 13 9 7 7 7 5 3 5 3 1 2 1 4 5 4 4 4 4 6 10 10 11 10 9 8 7 5
25 24 23 22 21 20 20 19 17 14 11 10 6 5 6 5 6 7 6 4 1 5 7 9 7 5 3 10 12 9 9 9 10 11 11 12 14 13 12 10 10 7 7 6 4 5 3 5 5 7 6 5 3 6 5 7 5 6 8 7 7 9 10 6 9 5 7 5 5 5 6 3 2 3 2 2 3 2 5 8 9 8 8 8 5 4 6
24 24 23 22 21 20 18 17 16 15 11 9 7 5 5 7 7 9 9 8 9 7 4 6 7 6 6 18 13 9 10 8 9 10 10 12 14 14 14 14 12 8 6 6 5 4 5 6 8 4 4 4 6 7 7 10 10 10 13 10 7 9 4 3 5 9 6 4 6 5 3 6 5 6 5 2 1 3 7 7 7 4 4 9 6 1 5
25 23 23 21 20 19 17 16 15 13 11 7 3 6 8 11 12 11 11 10 9 7 8 9 9 7 6 7 6 8 8 8 8 9 10 11 13 13 13 13 12 10 8 7 7 5 4 6 3 4 5 3 3 8 4 6 4 6 5 5 6 6 6 8 8 1 3 6 5 5 4 5 5 5 5 2 0 2 5 4 3 4 4 7 4 1 5
24 24 23 22 20 18 16 15 13 12 8 2 1 2 4 6 1 5 9 10 9 6 7 6 7 4 3 4 9 9 9 6 6 7 9 9 9 9 10 11 10 10 8 7 6 7 7 5 4 4 5 7 4 4 5 4 6 8 6 5 5 4 5 7 7 3 1 1 4 3 2 2 2 3 2 2 2 2 2 1 1 1 3 5 2 1 0
25 23 21 20 19 17 16 15 13 9 6 3 2 3 1 3 2 2 8 9 9 6 3 3 7 6 8 4 6 11 10 7 6 5 7 8 8 8 6 6 7 8 7 7 5 7 1 5 5 3 3 5 3 3 5 7 7 6 7 6 6 9 7 6 4 5 4 3 1 1 0 2 3 4 3 3 4 4 2 0 2 3 3 3 1 1 2
22 20 19 18 17 16 15 13 12 9 5 7 9 7 6 4 2 3 6 7 9 5 4 4 4 2 4 5 4 2 5 7 5 4 3 3 5 7 6 8 6 9 7 6 5 2 6 7 7 7 5 3 4 5 6 7 9 10 11 10 11 9 5 6 6 5 2 3 2 4 3 3 4 6 4 4 5 5 5 2 0 2 3 1 1 3 5
24 23 20 18 16 15 16 14 13 9 7 9 12 15 17 15 7 7 5 3 3 2 2 2 4 3 4 4 5 5 4 3 3 1 4 3 4 3 4 6 6 5 8 6 3 5 3 4 3 7 5 7 3 3 5 10 10 10 11 12 12 9 8 6 5 5 5 4 7 7 8 11 8 5 6 6 6 6 3 2 0 0 2 5 7 7 7
25 24 22 19 17 14 13 13 11 10 9 6 8 11 12 17 18 18 9 4 2 0 1 2 3 4 5 3 6 3 3 2 3 1 4 2 1 1 2 3 4 4 3 7 2 2 0 1 4 3 1 4 3 4 6 7 7 8 8 8 8 8 7 6 6 6 6 6 7 5 0 3 4 5 5 6 6 5 5 4 3 4 5 5 5 4 3
26 26 25 18 17 13 10 8 5 5 4 5 6 8 8 11 12 10 12 6 4 3 4 4 2 4 4 2 4 4 1 1 3 2 3 3 1 3 0 2 0 4 2 3 0 2 2 3 2 1 6 1 3 5 6 6 7 7 9 10 7 7 7 5 4 5 4 5 5 6 10 8 7 6 6 5 5 5 7 6 4 3 5 5 5 5 5
26 26 23 18 12 4 1 3 3 3 3 5 6 3 7 10 10 7 10 10 5 3 3 4 3 5 3 4 4 2 1 5 3 2 2 1 2 0 1 1 2 0 1 1 3 2 3 2 1 4 2 4 6 5 6 4 6 9 10 11 8 7 5 5 5 7 1 4 9 10 10 7 8 7 7 7 6 5 6 6 5 5 6 6 6 5 6
27 25 19 7 1 1 1 2 2 5 5 3 2 2 7 9 5 5 5 5 3 1 3 2 4 7 6 3 2 3 1 4 0 1 1 2 2 1 1 1 2 1 1 2 2 3 1 0 3 4 3 6 6 3 5 5 8 11 12 10 8 7 5 6 7 4 6 6 8 8 10 11 8 6 8 7 6 5 7 6 4 5 6 5 5 6 5
27 18 3 1 1 1 2 2 3 2 7 11 9 2 1 1 2 2 3 3 3 5 4 3 7 2 2 3 6 3 2 3 0 2 1 1 1 1 1 1 1 1 4 2 3 2 2 2 3 5 7 7 9 10 10 8 9 10 9 8 7 5 4 5 4 5 8 8 8 10 10 9 7 5 8 7 5 6 4 2 3 3 3 4 4 4 6
13 4 1 1 1 2 2 3 3 14 10 3 2 0 1 1 1 2 3 2 2 4 3 5 6 5 5 7 7 2 4 2 2 2 2 0 1 2 1 2 2 1 2 2 2 3 3 2 2 3 6 5 4 4 4 6 7 5 3 5 5 5 1 3 2 2 4 6 5 4 6 10 11 7 4 7 5 4 3 4 5 4 4 5 6 6 8
4 7 4 4 1 5 2 3 12 8 1 0 0 1 2 1 1 3 1 2 2 2 3 6 5 7 11 10 8 5 4 5 4 2 1 1 1 2 0 2 0 1 3 3 1 2 1 1 1 2 5 4 6 7 4 5 2 2 1 4 4 4 5 7 6 4 3 5 6 6 6 8 8 8 7 6 6 7 6 6 5 6 7 7 7 8 7
4 3 3 2 5 4 6 8 4 1 1 1 1 1 1 2 2 2 1 2 2 3 3 4 2 5 6 7 6 6 2 2 2 1 3 0 1 2 2 1 1 1 1 2 0 1 1 1 2 2 5 5 7 4 1 3 4 5 5 5 5 6 9 9 8 6 7 7 8 8 7 8 9 8 7 7 8 7 7 7 7 7 9 9 9 7 6
3 2 5 6 7 7 6 2 0 2 1 0 1 3 1 3 1 1 2 1 3 1 4 4 5 3 3 6 6 3 2 2 1 1 2 0 1 1 2 1 1 1 1 1 1 0 1 1 1 3 5 6 5 7 7 8 8 8 8 8 8 7 7 7 10 9 8 8 7 8 7 7 8 7 6 8 8 8 8 9 9 8 8 6 7 8 7
16 12 3 3 3 2 0 2 2 2 2 3 3 3 2 2 3 3 4 1 1 2 2 2 4 3 2 2 2 1 1 2 2 2 1 1 1 0 2 1 1 2 0 3 1 1 1 1 1 3 6 5 6 6 7 6 6 7 7 7 7 8 9 9 10 11 9 9 9 9 7 8 8 7 6 9 11 11 9 8 7 6 6 7 8 7 7
1 1 0 1 1 4 1 3 1 2 2 1 2 5 5 7 9 4 5 7 6 5 3 7 9 9 8 2 2 2 2 1 1 2 2 2 1 1 1 2 2 1 1 1 2 1 2 3 2 2 2 6 7 6 6 6 5 7 7 8 8 8 8 8 9 10 10 8 8 8 7 8 10 9 9 9 10 11 9 9 8 10 9 7 8 9 8
2 4 3 3 2 3 2 2 2 3 4 5 2 2 5 10 11 11 9 6 3 9 13 9 6 7 6 3 1 1 0 1 2 0 2 0 2 1 2 2 1 2 2 1 1 2 3 3 2 4 6 7 7 6 5 5 5 6 7 9 10 9 10 12 13 10 9 8 9 8 10 10 10 10 10 9 8 8 9 8 7 7 5 4 8 9 8
3 1 2 3 5 3 2 1 3 5 2 0 3 6 8 9 8 9 7 2 6 9 10 11 10 7 7 4 3 2 2 1 1 2 1 1 2 4 2 0 1 2 2 2 2 6 14 13 11 10 7 6 6 8 9 10 10 11 13 13 10 11 13 13 11 10 9 9 10 10 9 6 6 7 9 8 9 10 10 8 5 7 6 7 10 10 8
1 1 2 1 1 2 1 2 3 1 4 6 8 8 7 9 8 8 6 3 7 8 8 8 3 2 3 7 4 3 3 2 3 2 2 3 3 1 1 3 4 3 4 7 10 9 10 11 12 13 14 13 14 14 13 12 11 12 11 11 12 13 12 12 12 12 9 8 8 8 6 5 5 5 4 6 7 8 7 7 6 1 1 8 9 10 10
1 1 1 3 2 1 7 4 2 5 5 6 8 7 7 6 4 10 11 5 5 5 6 6 5 5 4 2 1 2 2 3 2 2 2 2 1 2 3 4 3 2 2 7 11 7 9 9 9 12 13 12 12 13 12 10 10 11 11 12 14 16 16 16 15 14 13 12 11 10 9 9 8 9 11 12 11 9 7 6 7 7 9 10 10 11 10
1 1 2 1 1 1 3 7 7 9 11 10 9 9 11 12 11 10 11 8 8 8 6 3 5 2 3 4 3 4 6 4 4 3 2 3 5 5 4 6 7 9 9 7 9 11 11 11 11 12 13 13 11 11 12 12 13 14 15 15 14 14 15 16 16 15 15 14 13 13 12 12 12 12 13 13 13 12 11 12 12 11 11 12 12 12 12
3 3 3 3 4 5 7 6 6 11 11 11 12 13 12 11 13 12 10 9 9 7 6 1 2 4 2 3 3 3 3 4 4 2 4 8 5 4 2 6 7 7 9 9 10 10 10 9 10 12 12 12 11 13 13 13 14 14 14 14 14 14 14 16 16 16 15 14 15 16 15 14 13 12 12 12 12 12 13 13 12 13 12 12 13 13 13
1 3 1 0 4 4 6 9 10 9 11 11 11 11 10 11 11 11 12 8 9 4 8 7 3 3 3 3 2 4 3 3 4 8 5 7 4 4 6 11 10 9 10 9 9 9 8 9 9 9 10 11 13 14 12 13 13 13 13 14 13 14 13 15 15 15 15 15 15 15 15 13 12 13 13 14 14 14 14 14 13 12 13 12 12 13 12
2 4 5 6 3 3 4 3 2 3 4 6 8 9 9 12 11 9 10 6 9 14 10 5 3 3 3 7 4 1 2 2 3 3 7 6 4 6 8 9 10 9 9 10 10 9 10 9 10 12 11 11 11 11 12 13 13 13 13 13 14 14 14 13 14 14 14 14 14 13 13 14 14 14 15 16 16 14 12 10 10 11 11 10 11 11 11
Wind_Direction
327 328 329 330 332 334 330 332 334 342 344 346 342 317 324 295 263 299 295 297 332 351 30 9 14 352 345 341 327 321 327 305 341 357 16 340 341 334 12 350 20 76 82 357 358 11 276 21 20 5 76 70 69 17 12 352 355 340 358 322 354 343 249 336 292 301 287 271 268 256 226 207 214 218 202 183 201 193 207 214 184 192 252 216 305 244 266
326 327 328 329 329 328 329 331 333 336 353 331 320 324 315 298 293 316 274 304 315 22 24 9 354 347 339 349 322 350 335 344 345 349 357 358 338 7 309 48 70 303 82 78 7 11 9 61 53 39 17 12 60 29 5 1 3 9 6 348 341 356 313 57 349 312 268 262 317 284 273 181 216 208 209 207 194 200 211 103 102 215 198 182 144 244 209
326 326 327 325 326 324 328 331 328 329 343 340 323 324 311 290 247 229 291 310 350 42 13 28 348 349 341 338 335 354 348 345 327 334 323 305 348 346 12 333 315 303 71 80 64 40 96 312 48 21 344 311 43 22 3 339 345 338 338 358 318 203 267 328 220 218 229 221 215 223 229 234 290 243 213 206 201 203 169 221 149 219 238 168 206 242 241
324 324 323 324 323 324 327 328 324 327 342 335 354 277 314 343 318 315 321 335 335 55 13 37 1 337 349 343 330 345 326 336 326 336 328 30 4 4 294 306 272 307 34 25 62 59 69 58 325 355 307 340 12 2 326 312 296 333 353 358 337 249 270 236 256 243 250 292 304 279 277 169 218 217 209 214 212 205 205 206 198 215 207 207 224 165 238
326 324 324 323 325 324 322 323 323 338 344 333 336 280 247 295 286 309 342 330 33 356 7 10 6 348 336 324 310 327 324 321 337 352 333 10 355 329 331 34 29 358 41 5 13 69 9 310 279 264 339 356 316 322 280 288 342 355 1 2 348 32 336 270 285 272 274 289 279 283 291 274 229 210 219 220 217 214 209 207 222 128 142 244 186 200 146
328 327 326 325 323 321 321 322 322 4 344 347 331 311 256 304 266 324 19 331 308 348 345 356 334 329 333 296 315 303 327 340 4 352 10 345 15 18 341 38 28 21 23 2 21 328 324 233 181 9 319 320 330 340 294 257 6 4 360 12 54 303 281 285 341 312 312 301 289 291 290 276 267 219 209 216 219 216 219 222 189 168 203 229 173 185 172
331 330 329 326 322 323 323 322 325 18 333 161 215 285 265 239 278 283 325 106 318 313 291 315 319 322 328 308 317 332 338 345 6 354 332 354 6 42 8 359 358 349 342 1 272 356 356 337 71 24 323 343 339 341 324 16 21 2 335 4 327 338 232 299 330 313 309 308 306 306 308 294 273 249 219 209 212 220 222 223 202 200 217 225 208 186 199
335 337 334 332 328 330 326 325 339 53 171 153 250 214 262 289 349 311 348 276 286 272 289 307 315 315 315 323 295 303 349 345 346 351 356 340 336 22 27 335 345 328 344 346 313 283 242 286 306 285 2 324 91 290 220 276 14 353 330 323 333 69 282 339 325 316 308 303 306 315 331 332 305 272 241 217 212 219 221 220 209 210 231 228 198 189 223
340 340 342 341 337 328 316 320 9 197 152 250 232 261 183 250 190 264 307 303 269 269 288 304 313 301 295 280 318 346 338 343 341 316 300 257 318 6 334 327 322 323 320 303 272 282 306 283 267 276 264 266 298 61 288 357 316 335 308 283 293 90 265 328 325 321 311 311 344 327 321 318 288 266 252 235 214 215 219 219 202 179 207 218 211 221 228
342 343 344 344 342 337 331 335 336 251 175 215 249 255 241 281 224 201 252 290 304 317 274 279 310 291 296 343 323 317 318 332 327 322 280 224 28 335 316 324 342 312 323 311 299 328 300 285 282 283 263 247 248 224 253 253 234 271 273 284 263 175 325 333 327 320 269 290 318 319 316 317 300 249 230 228 238 227 222 226 206 200 186 195 220 230 202
341 343 343 344 343 344 353 343 351 150 161 208 219 243 283 245 293 300 225 269 266 224 282 268 253 282 325 318 312 317 311 314 302 229 279 336 320 326 327 323 333 282 286 287 326 300 279 271 271 262 257 238 237 237 248 244 242 244 250 260 232 175 164 221 8 273 297 299 315 310 315 264 239 266 222 201 228 224 220 221 220 229 183 212 212 219 214
339 342 343 343 345 343 351 344 4 241 190 232 209 256 261 290 282 243 265 272 287 22 345 267 271 290 299 302 304 298 301 299 318 294 287 293 298 327 325 308 295 312 244 323 324 315 297 281 271 273 254 247 239 237 236 243 239 230 229 231 240 213 172 245 177 247 287 301 314 316 241 244 276 332 205 206 214 199 211 217 228 218 220 252 315 250 231
338 339 341 343 344 345 350 352 343 312 208 223 225 258 281 173 216 250 269 269 278 291 289 281 279 284 290 290 289 284 286 313 314 311 301 298 304 308 291 286 275 264 335 322 315 321 323 299 305 283 275 270 251 235 237 238 237 228 224 221 226 220 209 203 220 220 261 286 237 255 233 250 309 302 360 352 346 203 151 262 256 248 229 180 193 204 218
337 336 337 340 339 337 346 331 338 315 253 201 234 243 251 221 235 245 226 260 276 249 278 296 282 266 260 272 296 314 329 315 306 301 293 283 288 287 289 273 276 307 308 305 299 289 311 20 335 336 309 305 276 250 227 225 222 215 214 219 219 219 210 156 276 186 223 223 240 247 288 306 310 352 8 3 335 317 285 227 244 228 207 171 187 195 194
337 337 338 338 336 338 348 330 330 324 307 209 219 237 242 243 239 236 253 250 275 286 272 266 255 296 307 304 330 322 311 302 314 300 278 280 273 240 259 297 303 298 301 295 312 347 217 265 350 340 305 6 358 279 328 242 226 218 214 210 206 204 200 171 186 247 199 246 275 302 309 249 271 196 304 302 291 282 271 285 275 275 242 209 181 179 166
336 336 336 337 337 341 344 353 337 319 302 260 204 236 248 243 246 241 236 242 296 288 248 222 260 296 299 288 287 278 281 297 285 292 301 277 258 285 271 273 283 290 296 104 215 100 237 162 229 200 242 228 277 346 306 281 290 202 206 214 221 209 194 185 183 230 235 252 236 236 255 255 212 331 331 326 318 309 291 75 255 285 309 3 127 143 176
332 332 333 333 336 339 339 338 336 321 308 215 205 216 255 201 220 222 231 232 213 238 301 319 303 290 298 294 304 270 221 235 307 320 308 309 305 309 308 288 265 271 268 108 303 16 311 223 242 249 272 339 350 221 261 305 285 267 196 209 220 222 199 169 195 230 223 202 236 262 229 272 327 338 335 324 311 299 221 192 245 273 345 334 84 123 124
328 329 329 330 332 332 334 336 341 330 324 221 201 220 254 196 207 207 234 242 253 274 234 241 251 261 231 213 258 247 256 270 280 269 268 294 325 309 296 331 320 297 254 121 223 148 246 237 239 218 245 208 232 305 261 261 269 274 244 199 192 199 178 165 178 201 197 173 255 294 289 278 342 345 331 319 312 285 175 202 235 222 36 344 82 123 173
326 326 327 327 327 328 328 329 329 324 316 264 191 242 251 223 193 200 236 251 243 253 231 314 262 255 248 264 257 268 255 273 280 280 281 306 255 229 287 300 273 286 2 58 311 229 232 248 228 264 262 262 215 224 263 229 243 272 271 309 192 183 128 98 125 171 186 158 179 238 267 281 356 337 330 310 308 203 201 282 296 309 51 21 65 99 87
320 322 323 324 324 324 323 324 322 324 320 258 176 230 241 204 195 190 191 245 230 266 259 256 252 260 252 236 259 258 269 256 227 239 257 260 344 347 346 346 1 219 306 161 256 233 310 277 284 279 265 290 272 323 305 251 269 270 323 293 279 219 159 172 164 139 62 77 83 286 285 258 7 337 333 13 24 322 299 297 320 343 357 27 15 60 63
316 317 318 317 318 318 318 318 317 316 313 312 183 235 271 224 207 201 203 228 263 284 278 226 239 248 256 254 248 249 245 248 228 219 235 242 266 22 266 225 221 355 311 42 287 303 22 301 354 302 277 316 302 322 286 301 281 267 235 250 265 277 205 161 162 165 143 167 182 206 223 301 332 342 336 345 327 309 308 327 333 344 352 328 6 23 39
309 311 310 311 312 312 312 312 311 307 302 303 274 167 256 230 215 193 208 214 242 243 266 282 281 269 258 255 255 243 243 246 244 234 261 270 214 218 259 288 276 246 250 255 323 306 185 251 299 307 291 287 275 238 270 299 276 273 267 162 252 233 255 164 160 201 161 191 201 223 343 323 313 315 307 307 308 349 357 19 19 359 341 328 317 69 59
300 300 302 306 308 306 307 306 306 302 298 292 276 186 248 267 247 224 185 250 240 255 266 271 260 261 262 257 248 246 243 242 253 251 237 248 266 236 240 251 256 214 243 181 226 248 259 157 248 249 299 241 255 299 264 232 268 272 264 227 265 280 292 158 104 177 348 346 97 119 27 334 321 331 316 320 342 16 17 20 17 2 347 351 19 356 12
300 302 304 304 303 303 300 300 299 300 295 289 277 195 245 219 205 203 231 241 265 287 277 236 262 264 229 255 258 219 226 236 230 233 224 202 234 259 246 231 238 255 228 211 182 193 187 196 240 141 238 245 349 270 290 296 256 276 265 273 254 267 260 253 139 168 132 213 177 168 131 286 341 338 334 341 354 8 30 22 33 13 355 348 351 18 31
303 302 300 300 300 298 299 295 292 292 293 290 287 258 244 239 202 192 222 274 268 306 293 300 240 248 256 257 274 267 234 232 222 225 215 198 210 224 238 215 178 211 230 221 135 136 172 251 233 209 259 243 121 275 206 258 278 49 315 279 258 255 255 256 159 145 154 192 140 133 109 80 309 27 11 346 344 355 20 22 31 19 5 360 341 345 32
303 301 299 297 297 296 292 292 289 285 283 281 284 257 235 238 182 178 187 230 250 252 278 279 284 128 63 296 260 243 244 229 230 225 211 203 207 214 236 258 254 227 248 141 116 185 230 229 223 229 244 272 147 246 252 217 280 297 267 260 251 293 300 215 167 152 155 104 128 93 106 133 344 21 36 326 339 357 14 29 31 17 355 344 339 339 26
304 302 302 299 295 294 291 287 287 283 277 274 270 230 234 235 190 195 206 195 259 273 230 253 265 282 262 271 276 280 258 247 247 239 237 220 214 217 228 238 244 240 242 245 186 220 217 245 237 248 213 230 192 243 266 274 226 265 258 251 260 249 244 245 173 152 179 174 179 173 138 181 156 333 21 6 313 64 58 60 47 30 346 315 307 345 21
305 305 305 303 299 294 291 286 283 283 278 272 273 254 236 243 222 205 202 188 185 230 288 281 288 289 313 277 271 264 261 241 225 228 224 228 222 220 220 226 228 236 227 227 249 211 221 232 236 227 236 247 255 251 204 242 251 245 246 259 261 263 255 261 208 166 176 149 155 171 158 131 156 165 250 246 266 94 87 78 83 55 296 280 271 129 57
308 308 307 304 302 297 292 287 282 280 277 272 277 285 272 246 243 213 202 194 192 239 254 267 276 275 270 285 297 276 259 239 239 230 228 227 222 218 219 222 221 221 223 221 233 224 204 231 214 213 228 138 231 270 286 259 249 250 243 237 244 261 301 296 274 240 107 155 149 145 130 164 184 184 209 219 313 37 82 98 120 150 249 263 255 248 118
307 306 304 303 299 297 292 286 280 274 268 217 69 297 309 305 222 186 189 181 183 203 245 273 283 282 316 287 284 282 288 282 258 246 240 239 235 223 215 214 222 218 211 216 195 236 230 249 223 223 212 138 230 289 267 275 278 281 275 259 290 287 264 267 298 349 159 127 145 153 151 185 149 141 195 149 91 74 51 58 131 217 248 252 221 186 190
304 303 299 298 295 288 283 280 273 262 233 178 158 240 277 269 283 197 168 179 172 192 245 240 257 321 301 238 246 269 270 269 268 265 251 243 239 235 222 201 219 204 215 221 219 233 170 236 231 224 179 180 191 261 283 294 295 289 289 287 288 292 287 274 270 279 298 303 359 340 150 156 147 122 99 79 75 93 111 317 319 287 265 279 320 7 42
303 303 302 299 290 281 273 269 261 247 222 210 213 200 184 190 196 106 146 158 157 197 225 278 294 232 263 282 264 275 272 270 276 267 252 208 239 209 213 196 209 191 207 211 215 225 229 234 241 247 245 187 179 274 262 257 269 271 293 296 298 294 284 283 283 278 255 240 228 245 204 178 185 174 167 158 129 125 137 178 248 274 285 274 316 28 24
308 309 307 303 295 278 263 254 248 230 221 229 248 264 269 258 184 123 126 138 144 215 132 199 246 303 272 272 298 249 224 276 244 164 279 203 232 169 200 182 198 197 197 207 182 221 209 204 210 255 235 120 194 232 260 263 257 265 276 287 290 291 286 274 270 255 254 225 207 212 181 182 179 160 139 137 117 114 121 116 220 295 33 34 30 24 22
311 310 310 307 296 280 258 245 235 234 242 243 250 239 241 240 242 232 209 178 249 234 172 208 258 235 255 342 290 288 150 242 254 168 276 255 235 179 211 158 172 197 190 195 221 229 269 200 219 251 107 213 220 250 262 258 258 272 282 283 282 290 295 297 279 264 238 222 214 226 137 118 127 129 110 98 98 105 109 88 64 55 42 40 30 32 16
313 312 311 310 297 286 271 247 225 205 221 234 251 259 252 237 216 203 197 166 160 224 200 224 222 272 292 241 237 267 218 264 272 206 207 271 241 194 177 100 343 201 277 78 227 198 205 214 135 175 256 188 218 244 248 268 279 296 306 302 288 291 307 288 285 303 241 207 183 151 143 147 124 105 103 95 81 83 82 71 67 74 63 38 26 27 32
312 310 308 309 302 287 101 154 184 185 214 230 229 266 255 249 221 174 171 179 181 166 197 227 202 235 206 266 283 286 39 270 237 232 220 267 338 148 107 91 103 247 79 204 235 169 213 137 134 248 194 228 242 212 245 248 291 296 297 293 286 275 270 278 268 264 220 152 144 146 134 124 115 118 106 96 89 77 79 72 52 56 63 42 23 19 25
311 311 311 305 5 98 323 211 184 198 226 200 246 137 109 96 74 117 148 189 240 269 217 186 237 227 189 272 304 270 298 292 218 248 152 194 212 176 121 156 170 199 115 232 203 228 208 72 262 278 230 239 251 223 251 278 288 289 284 280 273 270 262 242 221 169 112 122 129 127 118 115 109 105 98 93 91 90 75 67 65 63 54 41 29 25 17
310 309 308 14 18 353 295 264 200 238 273 281 259 220 221 178 188 180 171 212 196 181 210 194 249 242 172 205 234 222 228 243 215 294 275 202 129 62 312 116 164 193 234 254 241 112 120 198 227 244 268 254 266 271 275 279 276 268 268 271 273 273 234 224 201 156 129 122 121 121 114 107 102 102 106 101 93 87 93 113 86 74 67 57 47 46 46
312 300 41 96 75 278 225 248 344 334 315 276 158 293 247 185 201 235 208 191 178 212 153 204 239 195 205 222 250 245 231 299 345 274 262 205 198 153 177 195 239 226 265 279 264 128 226 248 240 255 266 274 278 261 257 269 261 238 248 276 290 308 226 141 127 179 153 134 140 122 124 125 122 114 102 99 90 81 72 61 50 46 58 58 60 62 65
359 350 346 327 256 247 282 331 336 322 287 30 126 109 290 224 244 267 185 218 230 194 174 234 212 205 193 206 227 263 157 179 199 218 221 141 340 199 51 62 67 217 237 224 265 37 293 257 247 274 272 270 279 289 257 254 238 324 313 340 342 346 89 98 93 66 81 108 106 96 98 108 105 106 105 99 94 84 71 64 71 76 74 73 71 68 67
355 316 345 300 283 316 305 312 318 163 27 16 354 210 316 300 232 238 298 267 256 247 193 238 217 226 197 211 194 234 172 201 269 87 63 238 355 89 131 153 166 177 252 229 318 66 235 236 250 246 259 279 282 290 229 70 64 64 47 25 25 17 48 69 68 66 73 72 79 82 86 94 97 97 100 105 102 96 87 78 69 68 68 62 60 59 60
272 272 273 301 296 289 302 305 57 350 349 123 65 303 242 247 252 280 196 220 280 260 229 201 251 248 242 190 183 189 192 205 161 125 109 277 217 152 151 165 42 169 54 48 76 54 260 267 288 281 280 297 355 28 44 59 56 53 45 34 33 47 53 53 66 50 44 61 76 82 74 84 92 92 99 97 89 78 67 62 57 52 63 71 71 66 64
278 276 265 290 313 307 281 356 308 91 43 350 0 339 350 351 304 329 319 240 267 280 287 194 250 253 253 98 132 163 79 143 160 106 120 148 127 134 137 164 206 44 190 191 164 318 356 323 306 288 302 2 29 39 47 56 51 50 43 38 41 45 51 52 60 60 46 50 58 60 58 65 67 66 70 82 82 73 61 56 52 51 51 71 77 78 77
186 132 3 297 9 296 37 340 294 8 360 110 38 341 324 336 336 345 327 331 334 313 305 348 327 347 358 334 76 123 149 186 247 160 131 174 144 67 72 39 18 4 146 26 343 348 297 244 311 358 70 61 57 45 36 37 45 51 40 40 43 49 57 63 64 68 59 48 57 53 53 63 67 60 56 61 71 85 83 68 61 62 50 48 77 74 75
36 358 13 354 12 295 36 336 341 84 7 336 353 318 333 332 319 326 327 315 327 309 313 321 328 347 346 335 120 97 86 44 240 6 13 123 16 314 64 5 359 52 46 23 346 291 285 49 45 32 56 69 63 56 45 32 33 61 68 61 56 56 64 68 68 66 68 58 59 52 53 54 56 56 58 61 66 70 76 72 63 74 52 29 75 76 67
56 43 16 35 348 340 69 338 326 346 340 44 326 307 314 312 311 304 294 295 305 317 329 324 332 334 16 354 62 357 326 1 34 25 6 316 57 5 348 42 92 60 44 41 23 38 39 31 44 56 47 47 59 62 55 49 44 46 45 42 36 41 45 52 57 61 61 64 67 66 63 57 75 83 71 64 64 62 59 66 61 51 34 68 75 72 68
24 354 85 124 65 289 48 5 352 317 292 303 298 302 293 290 284 266 257 267 288 298 303 307 299 292 15 346 8 13 2 331 41 337 341 38 21 344 28 35 24 6 30 38 47 43 44 39 29 26 30 35 42 47 51 48 45 48 45 39 32 35 38 45 51 55 54 57 66 67 61 57 55 58 77 89 92 101 99 79 65 358 67 76 74 73 69
4 263 80 42 336 321 5 323 288 278 250 250 280 294 288 278 333 353 349 336 292 314 331 324 345 342 21 312 67 37 342 346 44 9 8 0 304 28 355 28 21 342 6 36 38 31 41 26 18 27 35 39 44 53 52 48 41 40 44 48 50 49 47 46 48 49 53 60 66 68 66 63 59 56 58 65 71 71 83 96 102 87 70 67 65 63 64
136 57 34 337 306 349 308 308 342 7 353 345 343 350 356 0 2 356 347 341 349 343 324 350 336 4 6 320 23 346 30 338 41 1 351 11 41 20 352 20 2 35 25 12 36 35 25 28 32 35 36 41 43 45 46 44 46 49 49 51 51 50 49 48 46 44 46 50 52 55 56 55 58 60 61 60 62 57 55 62 64 63 63 66 64 63 59
47 3 28 23 344 1 328 287 0 13 355 358 1 2 353 2 2 354 348 345 337 324 319 343 2 62 330 6 7 353 21 353 40 326 24 38 37 16 352 45 30 27 26 25 41 30 27 29 32 38 36 32 36 53 50 47 48 50 50 51 50 50 49 49 48 46 46 47 49 49 49 50 50 51 54 59 61 60 56 52 56 60 58 58 62 61 59
347 88 72 251 73 315 329 14 357 351 356 359 356 357 352 3 358 348 340 337 304 344 34 27 328 20 354 9 353 30 3 323 29 21 18 18 359 31 27 33 23 22 34 29 27 26 31 31 32 39 40 41 41 47 47 50 51 52 51 52 50 50 48 46 47 48 47 45 46 48 47 48 48 49 49 50 51 53 53 46 46 55 59 57 57 63 62
36 24 350 322 342 356 349 279 322 350 319 332 356 352 358 12 352 342 328 332 18 41 19 337 9 358 21 30 1 331 303 15 31 357 43 37 347 29 34 24 23 16 21 27 22 21 25 29 31 37 37 46 49 49 50 50 50 48 48 49 50 49 48 46 46 46 47 44 44 46 45 43 45 46 45 43 41 43 43 41 37 48 56 58 57 59 62